Weather History for Lee's Summit, MO

Change the Weather History Date:

Tuesday, November 19, 2013

  Actual Average (KMKC) Record (KMKC)
Temperature  
Mean Temperature 50 °F -  
Max Temperature 61 °F 51 °F 77 °F (2007)
Min Temperature 39 °F 34 °F 24 °F (2014)
Degree Days  
Heating Degree Days 15    
Moisture  
Dew Point 24 °F    
Average Humidity 38    
Maximum Humidity 58    
Minimum Humidity 23    
Precipitation  
Precipitation 0.00 in - - ()
Sea Level Pressure  
Sea Level Pressure 30.15 in    
Wind  
Wind Speed 10 mph (SSE)    
Max Wind Speed 16 mph    
Max Gust Speed 24 mph    
Visibility 10 miles    
Events      
Averages and records for this station are not official NWS values.
T = Trace of Precipitation, MM = Missing Value Source: NWS Daily Summary

Daily Weather History Graph

Daily Weather History Graph

Search for Another Location

Airport:

Trip Planner

Search our weather history database for the weather conditions in past years. The results will help you decide how hot, cold, wet, or windy it might be!

Date:

Astronomy

Nov. 19, 2013 Rise Set
Actual Time 7:04 AM CST 5:00 PM CST
Civil Twilight 6:36 AM CST 5:29 PM CST
Nautical Twilight 6:03 AM CST 6:01 PM CST
Astronomical Twilight 5:31 AM CST 6:33 PM CST
Moon 6:52 PM CST (11/19) 8:44 AM CST (11/19)
Length of Visible Light 10h 53m
Length of Day
9h 55m
Waning Gibbous, 96% of the Moon is Illuminated
Nov 19
Waning Gibbous
Nov 25
Last Quarter
Dec 2
New
Dec 9
First Quarter
Dec 17
Full

Hourly Weather History & Observations

Time (CST) Temp. Windchill Dew Point Humidity Pressure Visibility Wind Dir Wind Speed Gust Speed Precip Events Conditions
12:53 AM 45.0 °F 41.2 °F 25.0 °F 46% 30.27 in 10.0 mi South 6.9 mph - N/A   Clear
1:53 AM 44.1 °F 40.1 °F 25.0 °F 47% 30.26 in 10.0 mi South 6.9 mph - N/A   Clear
2:53 AM 43.0 °F 39.5 °F 24.1 °F 47% 30.26 in 10.0 mi SSE 5.8 mph - N/A   Clear
3:53 AM 42.1 °F 37.1 °F 25.0 °F 51% 30.26 in 10.0 mi SSE 8.1 mph - N/A   Clear
4:53 AM 42.1 °F 37.1 °F 24.1 °F 49% 30.24 in 10.0 mi SSE 8.1 mph - N/A   Clear
5:53 AM 41.0 °F 35.2 °F 25.0 °F 53% 30.24 in 10.0 mi SE 9.2 mph - N/A   Clear
6:53 AM 39.0 °F 32.8 °F 25.0 °F 57% 30.24 in 10.0 mi SSE 9.2 mph - N/A   Clear
7:53 AM 39.9 °F 33.9 °F 26.1 °F 58% 30.24 in 10.0 mi SE 9.2 mph - N/A   Clear
8:53 AM 45.0 °F 39.7 °F 27.0 °F 49% 30.24 in 10.0 mi SSE 10.4 mph 18.4 mph N/A   Clear
9:53 AM 48.9 °F - 27.0 °F 43% 30.24 in 10.0 mi SSE 12.7 mph - N/A   Clear
10:53 AM 54.0 °F - 27.0 °F 35% 30.22 in 10.0 mi SSE 11.5 mph 20.7 mph N/A   Clear
11:53 AM 55.9 °F - 24.1 °F 29% 30.19 in 10.0 mi SSE 13.8 mph 21.9 mph N/A   Clear
12:53 PM 57.9 °F - 26.1 °F 30% 30.15 in 10.0 mi South 13.8 mph - N/A   Scattered Clouds
1:53 PM 61.0 °F - 25.0 °F 25% 30.12 in 10.0 mi South 11.5 mph 21.9 mph N/A   Overcast
2:53 PM 60.1 °F - 21.9 °F 23% 30.08 in 10.0 mi South 13.8 mph 24.2 mph N/A   Partly Cloudy
3:53 PM 59.0 °F - 23.0 °F 25% 30.07 in 10.0 mi SSE 11.5 mph 24.2 mph N/A   Clear
4:53 PM 57.0 °F - 25.0 °F 29% 30.06 in 10.0 mi SSE 12.7 mph - N/A   Mostly Cloudy
5:53 PM 55.0 °F - 25.0 °F 31% 30.06 in 10.0 mi SSE 8.1 mph - N/A   Mostly Cloudy
6:53 PM 53.1 °F - 25.0 °F 34% 30.05 in 10.0 mi SSE 11.5 mph 20.7 mph N/A   Clear
7:53 PM 52.0 °F - 23.0 °F 32% 30.05 in 10.0 mi SE 16.1 mph 23.0 mph N/A   Mostly Cloudy
8:53 PM 52.0 °F - 21.9 °F 31% 30.05 in 10.0 mi SSE 13.8 mph 21.9 mph N/A   Overcast
9:53 PM 51.1 °F - 21.9 °F 32% 30.04 in 10.0 mi SSE 13.8 mph 20.7 mph N/A   Overcast
10:53 PM 51.1 °F - 21.9 °F 32% 30.02 in 10.0 mi SSE 15.0 mph 24.2 mph N/A   Overcast
11:53 PM 50.0 °F - 21.0 °F 32% 30.01 in 10.0 mi SSE 16.1 mph 20.7 mph N/A   Overcast